Date String (YYYY-MM-DD hh:mm:ss) UTC,Instrument flags,absolute air pressure of the measurement (hPa),sample flow rate (lpm),inlet stack bypass flow (lpm),air temperature of the measurement (°C),ambient temperature measured by the external sensor (°C),aerosol sample conditioner tube jacket temperature (°C),OPC LED temperature (°C),internal box temperature (°C),relative humidity of the measurement (%),span deviation,mass concentration of particles derived from Lorenz-Mie calculation of OPC scattering (μg/m³),mass concentration of particles derived from Lorenz-Mie calculation of OPC scattering (μg/m³),mass concentration of particles derived from Lorenz-Mie calculation of OPC scattering (μg/m³)
DateTimeUTC,F1_M11,P_M11,Q1_M11,Q2_M11,T1_M11,T2_M11,T3_M11,T4_M11,T5_M11,U1_M11,ZSPAN_M11,X0_M11,X2_M11,X1_M11
2024-05-03 14:00:00,SystemResetWarning,0823.1,5.00,000.00,023.0,022.4,000.0,031.4,024.8,016.2,0000.0,0013.23,0003.86,0002.63
2024-05-03 14:01:00,SystemResetWarning,0823.0,5.00,000.00,023.1,022.5,000.0,031.4,024.8,016.5,0000.0,0012.64,0003.82,0002.65
2024-05-03 14:02:00,SystemResetWarning,0823.0,5.00,000.00,023.1,022.5,000.0,031.4,024.8,016.2,0000.0,0011.42,0003.84,0002.67
2024-05-03 14:03:00,SystemResetWarning,0823.0,5.00,000.00,023.1,022.5,000.0,031.4,024.8,016.7,0000.0,0012.03,0003.84,0002.67
2024-05-03 14:04:00,SystemResetWarning,0823.0,4.99,000.00,023.1,022.5,000.0,031.4,024.9,016.1,0000.0,0011.71,0003.86,0002.66
2024-05-03 14:05:00,SystemResetWarning,0823.0,5.00,000.00,023.1,022.5,000.0,031.4,024.8,016.1,0000.0,0010.68,0003.84,0002.65
2024-05-03 14:06:00,SystemResetWarning,0823.0,5.00,000.00,023.1,022.5,000.0,031.4,024.8,016.5,0000.0,0011.39,0003.83,0002.63
2024-05-03 14:07:00,SystemResetWarning,0823.0,5.00,000.00,023.1,022.5,000.0,031.4,024.9,016.5,0000.0,0011.83,0003.78,0002.62
2024-05-03 14:08:00,SystemResetWarning,0823.0,5.01,000.00,023.1,022.5,000.0,031.4,024.9,016.7,0000.0,0011.41,0003.76,0002.62
2024-05-03 14:09:00,SystemResetWarning,0822.9,5.01,000.00,023.1,022.6,000.0,031.4,024.9,016.3,0000.0,0011.80,0003.76,0002.61
2024-05-03 14:10:00,SystemResetWarning,0822.9,5.00,000.00,023.2,022.6,000.0,031.5,024.9,016.5,0000.0,0012.56,0003.79,0002.62
2024-05-03 14:11:00,SystemResetWarning,0822.8,5.00,000.00,023.2,022.6,000.0,031.5,024.9,016.7,0000.0,0012.40,0003.83,0002.64
2024-05-03 14:12:00,SystemResetWarning,0822.9,4.99,000.00,023.2,022.6,000.0,031.5,024.9,016.3,0000.0,0012.23,0003.85,0002.66
2024-05-03 14:13:00,SystemResetWarning,0822.9,5.00,000.00,023.2,022.6,000.0,031.5,024.9,016.5,0000.0,0012.49,0003.89,0002.68
2024-05-03 14:14:00,SystemResetWarning,0823.0,5.01,000.00,023.2,022.6,000.0,031.5,024.9,016.6,0000.0,0012.63,0003.93,0002.71
2024-05-03 14:15:00,SystemResetWarning,0823.0,5.01,000.00,023.2,022.7,000.0,031.5,024.9,016.6,0000.0,0012.97,0003.93,0002.72
2024-05-03 14:16:00,SystemResetWarning,0823.1,5.00,000.00,023.2,022.7,000.0,031.5,024.9,016.4,0000.0,0013.15,0003.98,0002.75
2024-05-03 14:17:00,SystemResetWarning,0822.9,5.00,000.00,023.2,022.7,000.0,031.5,024.9,016.6,0000.0,0012.65,0004.05,0002.78
2024-05-03 14:18:00,SystemResetWarning,0823.0,4.99,000.00,023.3,022.7,000.0,031.5,024.9,016.2,0000.0,0011.67,0004.08,0002.80
2024-05-03 14:19:00,SystemResetWarning,0823.0,4.99,000.00,023.3,022.7,000.0,031.5,025.0,016.3,0000.0,0012.04,0004.12,0002.83
2024-05-03 14:20:00,SystemResetWarning,0822.9,5.00,000.00,023.3,022.7,000.0,031.5,025.0,016.4,0000.0,0011.79,0004.15,0002.85
2024-05-03 14:21:00,SystemResetWarning,0823.0,5.01,000.00,023.3,022.7,000.0,031.5,025.0,016.7,0000.0,0011.65,0004.19,0002.87
2024-05-03 14:22:00,SystemResetWarning,0822.8,5.01,000.00,023.3,022.8,000.0,031.6,025.0,016.3,0000.0,0011.79,0004.18,0002.87
2024-05-03 14:23:00,SystemResetWarning,0823.1,5.00,000.00,023.3,022.8,000.0,031.6,025.1,016.0,0000.0,0011.79,0004.18,0002.85
2024-05-03 14:24:00,SystemResetWarning,0823.2,4.99,000.00,023.3,022.8,000.0,031.6,025.0,017.1,0000.0,0011.57,0004.13,0002.86
2024-05-03 14:25:00,SystemResetWarning,0823.1,5.00,000.00,023.4,022.8,000.0,031.6,025.0,016.8,0000.0,0011.15,0004.13,0002.85
2024-05-03 14:26:00,SystemResetWarning,0823.0,5.00,000.00,023.4,022.8,000.0,031.6,025.0,016.0,0000.0,0011.00,0004.12,0002.85
2024-05-03 14:27:00,SystemResetWarning,0823.0,5.00,000.00,023.4,022.8,000.0,031.6,025.1,016.0,0000.0,0012.53,0004.21,0002.86
2024-05-03 14:28:00,SystemResetWarning,0823.0,5.00,000.00,023.4,022.8,000.0,031.6,025.1,015.5,0000.0,0013.14,0004.15,0002.87
2024-05-03 14:29:00,SystemResetWarning,0823.0,5.01,000.00,023.4,022.9,000.0,031.6,025.1,015.1,0000.0,0013.59,0004.13,0002.87
2024-05-03 14:30:00,SystemResetWarning,0823.0,5.01,000.00,023.4,022.9,000.0,031.6,025.1,014.9,0000.0,0013.27,0004.16,0002.88
2024-05-03 14:31:00,SystemResetWarning,0822.8,4.99,000.00,023.4,022.9,000.0,031.6,025.1,015.8,0000.0,0013.37,0004.21,0002.90
2024-05-03 14:32:00,SystemResetWarning,0823.3,5.00,000.00,023.5,022.9,000.0,031.7,025.1,016.0,0000.0,0012.72,0004.14,0002.90
2024-05-03 14:33:00,SystemResetWarning,0823.3,4.99,000.00,023.5,022.9,000.0,031.7,025.2,016.6,0000.0,0012.78,0004.14,0002.92
2024-05-03 14:34:00,SystemResetWarning,0822.8,5.00,000.00,023.5,022.9,000.0,031.7,025.2,017.8,0000.0,0014.00,0004.11,0002.93
2024-05-03 14:35:00,SystemResetWarning,0822.8,5.01,000.00,023.5,022.9,000.0,031.7,025.2,018.2,0000.0,0014.26,0004.13,0002.92
2024-05-03 14:36:00,SystemResetWarning,0822.9,5.01,000.00,023.5,022.9,000.0,031.7,025.2,018.2,0000.0,0014.50,0004.13,0002.92
2024-05-03 14:37:00,SystemResetWarning,0823.2,5.00,000.00,023.5,023.0,000.0,031.7,025.2,018.4,0000.0,0014.37,0004.14,0002.92
2024-05-03 14:38:00,SystemResetWarning,0823.0,5.00,000.00,023.5,023.0,000.0,031.7,025.2,017.5,0000.0,0012.81,0004.04,0002.89
2024-05-03 14:39:00,SystemResetWarning,0822.9,5.00,000.00,023.5,023.0,000.0,031.8,025.3,017.5,0000.0,0011.89,0004.02,0002.89
2024-05-03 14:40:00,SystemResetWarning,0823.1,4.99,000.00,023.5,023.0,000.0,031.8,025.3,018.2,0000.0,0011.25,0004.02,0002.91
2024-05-03 14:41:00,SystemResetWarning,0823.2,4.99,000.00,023.5,023.0,000.0,031.8,025.3,018.1,0000.0,0011.35,0004.01,0002.89
2024-05-03 14:42:00,SystemResetWarning,0822.9,5.00,000.00,023.6,023.0,000.0,031.8,025.2,018.3,0000.0,0011.31,0003.93,0002.88
2024-05-03 14:43:00,SystemResetWarning,0822.9,5.00,000.00,023.6,023.0,000.0,031.8,025.2,018.0,0000.0,0011.72,0003.96,0002.87
2024-05-03 14:44:00,SystemResetWarning,0822.9,5.00,000.00,023.6,023.1,000.0,031.8,025.2,017.9,0000.0,0011.31,0003.95,0002.86
2024-05-03 14:45:00,SystemResetWarning,0823.1,4.99,000.00,023.6,023.1,000.0,031.8,025.3,018.3,0000.0,0010.17,0004.00,0002.88
2024-05-03 14:46:00,SystemResetWarning,0822.9,5.01,000.00,023.6,023.1,000.0,031.9,025.3,018.3,0000.0,0010.15,0004.01,0002.88
2024-05-03 14:47:00,SystemResetWarning,0822.7,5.01,000.00,023.6,023.1,000.0,031.9,025.4,018.2,0000.0,0010.21,0003.96,0002.87
2024-05-03 14:48:00,SystemResetWarning,0822.9,5.00,000.00,023.7,023.1,000.0,031.9,025.5,017.8,0000.0,0010.43,0003.97,0002.89
2024-05-03 14:49:00,SystemResetWarning,0823.1,4.98,000.00,023.7,023.1,000.0,031.9,025.5,017.4,0000.0,0011.15,0004.01,0002.90
2024-05-03 14:50:00,SystemResetWarning,0823.0,5.01,000.00,023.7,023.1,000.0,031.9,025.4,017.5,0000.0,0011.48,0004.03,0002.90
2024-05-03 14:51:00,SystemResetWarning,0823.0,5.01,000.00,023.7,023.1,000.0,031.9,025.4,017.7,0000.0,0011.83,0004.01,0002.88
2024-05-03 14:52:00,SystemResetWarning,0823.3,4.99,000.00,023.7,023.1,000.0,031.9,025.4,018.2,0000.0,0012.52,0003.99,0002.89
2024-05-03 14:53:00,SystemResetWarning,0823.1,5.00,000.00,023.7,023.2,000.0,031.9,025.4,018.7,0000.0,0012.08,0003.99,0002.91
2024-05-03 14:54:00,SystemResetWarning,0822.9,5.00,000.00,023.7,023.2,000.0,031.9,025.4,018.9,0000.0,0011.60,0003.98,0002.93
2024-05-03 14:55:00,SystemResetWarning,0823.0,4.99,000.00,023.8,023.2,000.0,032.0,025.5,019.4,0000.0,0012.04,0004.01,0002.95
2024-05-03 14:56:00,SystemResetWarning,0823.0,5.00,000.00,023.8,023.2,000.0,032.0,025.5,018.9,0000.0,0012.28,0004.02,0002.95
2024-05-03 14:57:00,SystemResetWarning,0823.0,4.99,000.00,023.8,023.2,000.0,032.0,025.5,018.8,0000.0,0012.17,0004.00,0002.97
2024-05-03 14:58:00,SystemResetWarning,0823.1,5.01,000.00,023.8,023.2,000.0,032.0,025.5,018.5,0000.0,0012.48,0003.99,0002.98
2024-05-03 14:59:00,SystemResetWarning,0822.8,5.01,000.00,023.8,023.2,000.0,032.0,025.5,018.5,0000.0,0012.66,0004.00,0002.98
